This is the latest recevied weather packets stored in our database for station/object N5JXS. If no packets are shown the sender has not sent any weather packets the latest 10 day(s).
| Time | Temp. | Humidity | Pressure | Rain* | Wind** | Luminosity | Snow |
|---|---|---|---|---|---|---|---|
| 1788432320 | 16.11° C | 41% | 1023.6 hPa | 0 mm | - | 0 W/m² | - |
| 1788432016 | 16.67° C | 41% | 1023.2 hPa | 0 mm | - | 0 W/m² | - |
| 1788431712 | 16.67° C | 40% | 1023.4 hPa | 0 mm | - | 0 W/m² | - |
| 1788431408 | 17.78° C | 38% | 1023.6 hPa | 0 mm | - | 0 W/m² | - |
| 1788431103 | 18.33° C | 37% | 1023.4 hPa | 0 mm | - | 0 W/m² | - |
| 1788430802 | 18.89° C | 34% | 1023.6 hPa | 0 mm | - | 0 W/m² | - |
| 1788430496 | 18.89° C | 34% | 1023.6 hPa | 0 mm | - | 0 W/m² | - |
| 1788430192 | 19.44° C | 35% | 1023.4 hPa | 0 mm | - | 0 W/m² | - |
| 1788429887 | 19.44° C | 33% | 1023.1 hPa | 0 mm | - | 0 W/m² | - |
| 1788429584 | 19.44° C | 34% | 1023.4 hPa | 0 mm | - | 0 W/m² | - |
| 1788429278 | 18.89° C | 34% | 1023.2 hPa | 0 mm | - | 0 W/m² | - |
| 1788428974 | 18.89° C | 36% | 1023.1 hPa | 0 mm | - | 0 W/m² | - |
| 1788428672 | 19.44° C | 35% | 1023.4 hPa | 0 mm | - | 0 W/m² | - |
| 1788428369 | 19.44° C | 34% | 1023.2 hPa | 0 mm | - | 0 W/m² | - |
| 1788428064 | 19.44° C | 34% | 1023 hPa | 0 mm | - | 0 W/m² | - |
| 1788427759 | 19.44° C | 34% | 1023.2 hPa | 0 mm | - | 0 W/m² | - |
| 1788427454 | 18.89° C | 35% | 1023.5 hPa | 0 mm | - | 0 W/m² | - |
| 1788427152 | 18.33° C | 37% | 1023 hPa | 0 mm | - | 0 W/m² | - |
| 1788426851 | 18.33° C | 38% | 1023.4 hPa | 0 mm | - | 0 W/m² | - |
| 1788426547 | 18.33° C | 39% | 1023.6 hPa | 0 mm | - | 0 W/m² | - |
| 1788426242 | 17.78° C | 40% | 1023.5 hPa | 0 mm | - | 0 W/m² | - |
| 1788425940 | 17.22° C | 42% | 1023.7 hPa | 0 mm | - | 0 W/m² | - |
| 1788425639 | 15.56° C | 47% | 1023.6 hPa | 0 mm | - | 0 W/m² | - |
| 1788425339 | 15.56° C | 50% | 1023.4 hPa | 0 mm | - | 0 W/m² | - |
| 1788425037 | 16.11° C | 48% | 1023.6 hPa | 0 mm | - | 0 W/m² | - |
* Rain latest hour (hover to see other rain measurements)
** Current wind speed in m/s (hover to see current wind gust speed)